Location: Partizánske
(48.6285°N, 18.3769°E)
Time: 03:41:52
(UTC+01:00)

ISS - Pass Details

Date: 05 December 2021
Orbit: 413 x 422 km, 51.6° (Epoch: 27 January)

Event Time Altitude Azimuth Distance (km) Brightness Sun altitude
Rises 17:00:28 0° 291° (WNW) 2,389 0.9 -10.9°
Reaches altitude 10° 17:02:35 10° 290° (WNW) 1,520 -0.2 -11.2°
Maximum altitude 17:06:00 78° 205° (SSW) 438 -3.6 -11.7°
Enters shadow 17:09:18 11° 118° (ESE) 1,471 -1.4 -12.3°
